Printer-friendly version

IAU Minor Planet Center

Minor Planet Center

MPEC 2007-T119: 2007 TE71

The following Minor Planet Electronic Circular may be linked-to from your own Web pages, but must not otherwise be redistributed electronically.


Read MPEC 2007-T118 Read MPEC 2007-T120


M.P.E.C. 2007-T119                               Issued 2007 Oct. 15, 18:52 UT

     The Minor Planet Electronic Circulars contain information on unusual
         minor planets and routine data on comets.  They are published
   on behalf of Commission 20 of the International Astronomical Union by the
          Minor Planet Center, Smithsonian Astrophysical Observatory,
                          Cambridge, MA 02138, U.S.A.

             Prepared using the Tamkin Foundation Computer Network

                              MPC@CFA.HARVARD.EDU
          URL http://www.cfa.harvard.edu/iau/mpc.html  ISSN 1523-6714

                                   2007 TE71

Observations:
     K07T71E* C2007 10 14.22140 00 10 51.45 +03 42 27.3          21.3 V ET119G96
     K07T71E  C2007 10 14.22833 00 10 52.21 +03 42 05.1          21.0 V ET119G96
     K07T71E  C2007 10 14.23523 00 10 52.96 +03 41 43.3          21.1 V ET119G96
     K07T71E  C2007 10 14.24213 00 10 53.68 +03 41 21.3          21.2 V ET119G96
     K07T71E  C2007 10 14.27025 00 10 56.74 +03 39 52.4          20.4 V ET119G96
     K07T71E  C2007 10 14.27211 00 10 56.96 +03 39 46.3          20.6 V ET119G96
     K07T71E  C2007 10 14.27393 00 10 57.14 +03 39 40.7          20.5 V ET119G96
     K07T71E  C2007 10 14.27577 00 10 57.36 +03 39 35.1          20.4 V ET119G96
     K07T71E  C2007 10 15.24185 00 13 04.34 +02 50 05.5          21.3 V ET119291
     K07T71E  C2007 10 15.24594 00 13 04.76 +02 49 52.8          21.5 V ET119291
     K07T71E  C2007 10 15.25007 00 13 05.19 +02 49 40.5          21.1 V ET119291
     K07T71E  C2007 10 15.25668 00 13 05.89 +02 49 20.0          20.8 V ET119G96
     K07T71E  C2007 10 15.26288 00 13 06.52 +02 49 01.5                 ET119G96
     K07T71E  C2007 10 15.26878 00 13 07.10 +02 48 44.4          20.9 V ET119G96
     K07T71E  C2007 10 15.27488 00 13 07.72 +02 48 25.2          20.9 V ET119G96

Observer details:
291 LPL/Spacewatch II.  Observer R. S. McMillan.  1.8-m f/2.7 reflector + CCD.
G96 Mt. Lemmon Survey.  Observer R. A. Kowalski.  Measurers E. C. Beshore,
    A. Boattini, G. J. Garradd, A. R. Gibbs, A. D. Grauer, R. E. Hill,
    R. A. Kowalski, S. M. Larson, R. H. McNaught.  1.5-m reflector + CCD.

Orbital elements:
2007 TE71                                                Earth MOID = 0.0831 AU
Epoch 2007 Oct. 27.0 TT = JDT 2454400.5                 MPC
M  56.01161              (2000.0)            P               Q
n   0.70802901     Peri.  113.78663     +0.69655021     +0.71607446
a   1.2467193      Node   200.57915     -0.69627922     +0.65933545
e   0.1770899      Incl.    7.41022     -0.17324276     +0.22915963
P   1.39           H   24.2           G   0.15           U   9
Residuals in seconds of arc
071014 G96  0.0   0.4+    071014 G96  0.1+  0.3-    071015 291  0.1-  0.0
071014 G96  0.1+  0.1+    071014 G96  0.1-  0.2-    071015 G96  0.8+  0.3-
071014 G96  0.1+  0.1+    071014 G96  0.2+  0.1+    071015 G96  0.5+  0.2-
071014 G96  0.3-  0.1-    071015 291  0.0   0.4+    071015 G96  0.1-  0.3+
071014 G96  0.1-  0.1-    071015 291  0.1-  0.1-    071015 G96  0.4-  0.7-

Ephemeris:
2007 TE71                a,e,i = 1.25, 0.18, 7                   q = 1.0259
Date    TT    R. A. (2000) Decl.     Delta      r     Elong.  Phase     V
2007 10 07    23 52.57   +11 22.7    0.107    1.104   164.8    13.7    20.4
2007 10 12    00 05.73   +05 47.5    0.121    1.116   164.7    13.7    20.6
2007 10 17    00 16.73   +01 27.2    0.138    1.128   161.3    16.5    21.0
2007 10 22    00 26.24   -01 47.2    0.157    1.141   156.8    20.1    21.5
2007 10 27    00 34.73   -04 07.2    0.178    1.154   152.4    23.5    21.9
2007 11 01    00 42.51   -05 43.4    0.200    1.168   148.1    26.7    22.2
2007 11 06    00 49.86   -06 44.6    0.225    1.181   144.2    29.4    22.6

Sonia Keys                   (C) Copyright 2007 MPC           M.P.E.C. 2007-T119

Read MPEC 2007-T118 Read MPEC 2007-T120


Our Web policy. Index to the CBAT/MPC/ICQ pages.


Valid HTML 4.01!